Location: Unspecified
(0.0000°N, 0.0000°E)
Time: 13:24:28
(UTC+00:00)

Envisat - Pass Details

Date: 14 September 2019
Orbit: 764 x 766 km, 98.1° (Epoch: 18 September)

Event Time Altitude Azimuth Distance (km) Brightness Sun altitude
Rises 05:24:03 0° 54° (NE) 3,218 7.3 -7.9°
Reaches altitude 10° 05:28:55 10° 96° (E) 2,297 7.2 -6.7°
Maximum altitude 05:29:32 10° 103° (ESE) 2,283 7.0 -6.5°
Drops below altitude 10° 05:30:09 10° 110° (ESE) 2,298 6.8 -6.4°
Sets 05:35:00 0° 152° (SSE) 3,229 6.6 -5.2°
